Hlavní strana
METAR-TAF:

METAR-TAF

Letiště :

Hoonah, Aljaška, Spojené státy americké

zeměpisná šířka: 58-07N, zeměpisná délka: 135-27W, výška: 0 m

Aktuální stav počasí

Zpráva byla vytvořena před 20 minutami, v 01:56 UTC
Východoseverovýchodní vítr 9 kt
Teplota 7°C
Vlhkost vzduchu 81%
Tlak 1004 hPa
Viditelnost: 16.1 km
Zataženo ve výšce 2300 ft
slabý déšť

METAR: PAOH 220156Z AUTO 07009KT 10SM -RA OVC023 07/04 A2966 RMK AO2 SLP046 P0000 T00670039

Čas: 18:16 (02:16 UTC)


TAF: chybějící

Stav a předpovědi počasí z více než 4 000 letišť (zprávy METAR a TAF).

Červené a žluté tečky na mapě představují dostupné meteorologické stanice.

Když kurzor umístíte na tečku, zobrazí se název stanice.

Pak kliknutím zobrazíte stav a předpověď počasí.

Chcete-li změnit mapu, kliknutím na zelené tlačítko se znaménkem +mapu přiblížíte, kliknutím na zelené tlačítko se znaménkem – mapu oddálíte a kliknutím na zelené šipky přejdete na sousední mapy.


METAR-TAF: